owner,sensor,date,latitude,longitude,vertical_datum,wind_speed,wind_to_direction,wind_speed_of_gust,qcFlag 
WAVCIS,ioos:station:WAVCIS:CSI15:1,2011-07-01T00:00:00Z,28.8332,-90.8320,10.0,3.298,173.0,,'11111222,11111222,99999999' 
WAVCIS,ioos:station:WAVCIS:CSI15:1,2011-07-01T01:00:00Z,28.8332,-90.8320,10.0,3.006,175.0,,'11111222,11111222,99999999' 
WAVCIS,ioos:station:WAVCIS:CSI15:1,2011-07-01T02:00:00Z,28.8332,-90.8320,10.0,3.703,164.0,,'11111222,11111222,99999999' 
WAVCIS,ioos:station:WAVCIS:CSI15:1,2011-07-01T03:00:00Z,28.8332,-90.8320,10.0,3.091,159.0,,'11111222,11111222,99999999' 
WAVCIS,ioos:station:WAVCIS:CSI15:1,2011-07-01T04:00:00Z,28.8332,-90.8320,10.0,4.923,176.0,,'11111222,11111222,99999999' 
WAVCIS,ioos:station:WAVCIS:CSI15:1,2011-07-01T05:00:00Z,28.8332,-90.8320,10.0,4.466,184.0,,'11111222,11111222,99999999' 
WAVCIS,ioos:station:WAVCIS:CSI15:1,2011-07-01T06:00:00Z,28.8332,-90.8320,10.0,4.71,186.0,,'11111222,11111222,99999999' 
WAVCIS,ioos:station:WAVCIS:CSI15:1,2011-07-01T07:00:00Z,28.8332,-90.8320,10.0,4.268,188.0,,'11111222,11111222,99999999' 
WAVCIS,ioos:station:WAVCIS:CSI15:1,2011-07-01T08:00:00Z,28.8332,-90.8320,10.0,3.514,201.0,,'11111222,11111222,99999999' 
WAVCIS,ioos:station:WAVCIS:CSI15:1,2011-07-01T09:00:00Z,28.8332,-90.8320,10.0,3.313,202.0,,'11111222,11111222,99999999' 
WAVCIS,ioos:station:WAVCIS:CSI15:1,2011-07-01T10:00:00Z,28.8332,-90.8320,10.0,3.532,225.0,,'11111222,11111222,99999999' 
WAVCIS,ioos:station:WAVCIS:CSI15:1,2011-07-01T11:00:00Z,28.8332,-90.8320,10.0,2.986,241.0,,'11111222,11111222,99999999' 
WAVCIS,ioos:station:WAVCIS:CSI15:1,2011-07-01T12:00:00Z,28.8332,-90.8320,10.0,2.216,266.0,,'11111222,11111222,99999999' 
WAVCIS,ioos:station:WAVCIS:CSI15:1,2011-07-01T13:00:00Z,28.8332,-90.8320,10.0,1.816,284.0,,'11111222,11111222,99999999' 
WAVCIS,ioos:station:WAVCIS:CSI15:1,2011-07-01T14:00:00Z,28.8332,-90.8320,10.0,2.85,305.0,,'11111222,11111222,99999999' 
WAVCIS,ioos:station:WAVCIS:CSI15:1,2011-07-01T15:00:00Z,28.8332,-90.8320,10.0,1.9,288.0,,'11111222,11111222,99999999' 
WAVCIS,ioos:station:WAVCIS:CSI15:1,2011-07-01T16:00:00Z,28.8332,-90.8320,10.0,2.16,310.0,,'11111222,11111222,99999999' 
WAVCIS,ioos:station:WAVCIS:CSI15:1,2011-07-01T17:00:00Z,28.8332,-90.8320,10.0,1.455,327.0,,'11111222,11111222,99999999' 
WAVCIS,ioos:station:WAVCIS:CSI15:1,2011-07-01T18:00:00Z,28.8332,-90.8320,10.0,0.265,41.0,,'11111222,11111222,99999999' 
WAVCIS,ioos:station:WAVCIS:CSI15:1,2011-07-01T19:00:00Z,28.8332,-90.8320,10.0,0.457,14.0,,'11111222,11111222,99999999' 
WAVCIS,ioos:station:WAVCIS:CSI15:1,2011-07-01T20:00:00Z,28.8332,-90.8320,10.0,0.199,171.0,,'11111222,11111222,99999999' 
WAVCIS,ioos:station:WAVCIS:CSI15:1,2011-07-01T21:00:00Z,28.8332,-90.8320,10.0,1.752,196.0,,'11111222,11111222,99999999' 
WAVCIS,ioos:station:WAVCIS:CSI15:1,2011-07-01T22:00:00Z,28.8332,-90.8320,10.0,3.469,193.0,,'11111222,11111222,99999999' 
WAVCIS,ioos:station:WAVCIS:CSI15:1,2011-07-01T23:00:00Z,28.8332,-90.8320,10.0,4.423,200.0,,'11111222,11111222,99999999' 
WAVCIS,ioos:station:WAVCIS:CSI15:1,2011-07-02T00:00:00Z,28.8332,-90.8320,10.0,4.216,197.0,,'11111222,11111222,99999999' 
WAVCIS,ioos:station:WAVCIS:CSI15:1,2011-07-02T01:00:00Z,28.8332,-90.8320,10.0,4.083,212.0,,'11111222,11111222,99999999' 
WAVCIS,ioos:station:WAVCIS:CSI15:1,2011-07-02T02:00:00Z,28.8332,-90.8320,10.0,3.472,214.0,,'11111222,11111222,99999999' 
WAVCIS,ioos:station:WAVCIS:CSI15:1,2011-07-02T03:00:00Z,28.8332,-90.8320,10.0,3.319,215.0,,'11111222,11111222,99999999' 
WAVCIS,ioos:station:WAVCIS:CSI15:1,2011-07-02T04:00:00Z,28.8332,-90.8320,10.0,3.115,234.0,,'11111222,11111222,99999999' 
WAVCIS,ioos:station:WAVCIS:CSI15:1,2011-07-02T05:00:00Z,28.8332,-90.8320,10.0,3.184,227.0,,'11111222,11111222,99999999' 
WAVCIS,ioos:station:WAVCIS:CSI15:1,2011-07-02T06:00:00Z,28.8332,-90.8320,10.0,3.316,238.0,,'11111222,11111222,99999999' 
WAVCIS,ioos:station:WAVCIS:CSI15:1,2011-07-02T07:00:00Z,28.8332,-90.8320,10.0,3.466,239.0,,'11111222,11111222,99999999' 
WAVCIS,ioos:station:WAVCIS:CSI15:1,2011-07-02T08:00:00Z,28.8332,-90.8320,10.0,3.03,232.0,,'11111222,11111222,99999999' 
WAVCIS,ioos:station:WAVCIS:CSI15:1,2011-07-02T09:00:00Z,28.8332,-90.8320,10.0,3.231,259.0,,'11111222,11111222,99999999' 
WAVCIS,ioos:station:WAVCIS:CSI15:1,2011-07-02T10:00:00Z,28.8332,-90.8320,10.0,2.871,256.0,,'11111222,11111222,99999999' 
WAVCIS,ioos:station:WAVCIS:CSI15:1,2011-07-02T11:00:00Z,28.8332,-90.8320,10.0,3.061,280.0,,'11111222,11111222,99999999' 
WAVCIS,ioos:station:WAVCIS:CSI15:1,2011-07-02T12:00:00Z,28.8332,-90.8320,10.0,4.679,291.0,,'11111222,11111222,99999999' 
WAVCIS,ioos:station:WAVCIS:CSI15:1,2011-07-02T13:00:00Z,28.8332,-90.8320,10.0,4.303,300.0,,'11111222,11111222,99999999' 
WAVCIS,ioos:station:WAVCIS:CSI15:1,2011-07-02T14:00:00Z,28.8332,-90.8320,10.0,5.055,304.0,,'11111222,11111222,99999999' 
WAVCIS,ioos:station:WAVCIS:CSI15:1,2011-07-02T15:00:00Z,28.8332,-90.8320,10.0,5.327,321.0,,'11111222,11111222,99999999' 
WAVCIS,ioos:station:WAVCIS:CSI15:1,2011-07-02T16:00:00Z,28.8332,-90.8320,10.0,4.087,310.0,,'11111222,11111222,99999999' 
WAVCIS,ioos:station:WAVCIS:CSI15:1,2011-07-02T17:00:00Z,28.8332,-90.8320,10.0,2.033,306.0,,'11111222,11111222,99999999' 
WAVCIS,ioos:station:WAVCIS:CSI15:1,2011-07-02T18:00:00Z,28.8332,-90.8320,10.0,1.556,292.0,,'11111222,11111222,99999999' 
WAVCIS,ioos:station:WAVCIS:CSI15:1,2011-07-02T19:00:00Z,28.8332,-90.8320,10.0,1.305,266.0,,'11111222,11111222,99999999' 
WAVCIS,ioos:station:WAVCIS:CSI15:1,2011-07-02T20:00:00Z,28.8332,-90.8320,10.0,2.175,217.0,,'11111222,11111222,99999999' 
WAVCIS,ioos:station:WAVCIS:CSI15:1,2011-07-02T21:00:00Z,28.8332,-90.8320,10.0,1.929,227.0,,'11111222,11111222,99999999' 
WAVCIS,ioos:station:WAVCIS:CSI15:1,2011-07-02T22:00:00Z,28.8332,-90.8320,10.0,5.879,332.0,,'11111222,11111222,99999999' 
WAVCIS,ioos:station:WAVCIS:CSI15:1,2011-07-02T23:00:00Z,28.8332,-90.8320,10.0,1.358,332.0,,'11111222,11111222,99999999' 
WAVCIS,ioos:station:WAVCIS:CSI15:1,2011-07-03T00:00:00Z,28.8332,-90.8320,10.0,0.331,313.0,,'11111222,11111222,99999999' 
WAVCIS,ioos:station:WAVCIS:CSI15:1,2011-07-03T01:00:00Z,28.8332,-90.8320,10.0,1.42,245.0,,'11111222,11111222,99999999' 
WAVCIS,ioos:station:WAVCIS:CSI15:1,2011-07-03T02:00:00Z,28.8332,-90.8320,10.0,2.991,192.0,,'11111222,11111222,99999999' 
WAVCIS,ioos:station:WAVCIS:CSI15:1,2011-07-03T03:00:00Z,28.8332,-90.8320,10.0,2.001,206.0,,'11111222,11111222,99999999' 
WAVCIS,ioos:station:WAVCIS:CSI15:1,2011-07-03T04:00:00Z,28.8332,-90.8320,10.0,1.511,202.0,,'11111222,11111222,99999999' 
WAVCIS,ioos:station:WAVCIS:CSI15:1,2011-07-03T05:00:00Z,28.8332,-90.8320,10.0,2.629,196.0,,'11111222,11111222,99999999' 
WAVCIS,ioos:station:WAVCIS:CSI15:1,2011-07-03T06:00:00Z,28.8332,-90.8320,10.0,2.668,218.0,,'11111222,11111222,99999999' 
WAVCIS,ioos:station:WAVCIS:CSI15:1,2011-07-03T07:00:00Z,28.8332,-90.8320,10.0,3.198,205.0,,'11111222,11111222,99999999' 
WAVCIS,ioos:station:WAVCIS:CSI15:1,2011-07-03T08:00:00Z,28.8332,-90.8320,10.0,3.128,208.0,,'11111222,11111222,99999999' 
WAVCIS,ioos:station:WAVCIS:CSI15:1,2011-07-03T09:00:00Z,28.8332,-90.8320,10.0,2.874,230.0,,'11111222,11111222,99999999' 
WAVCIS,ioos:station:WAVCIS:CSI15:1,2011-07-03T10:00:00Z,28.8332,-90.8320,10.0,2.893,235.0,,'11111222,11111222,99999999' 
WAVCIS,ioos:station:WAVCIS:CSI15:1,2011-07-03T11:00:00Z,28.8332,-90.8320,10.0,4.864,239.0,,'11111222,11111222,99999999' 
WAVCIS,ioos:station:WAVCIS:CSI15:1,2011-07-03T12:00:00Z,28.8332,-90.8320,10.0,9.56,340.0,,'11111222,11111222,99999999' 
WAVCIS,ioos:station:WAVCIS:CSI15:1,2011-07-03T13:00:00Z,28.8332,-90.8320,10.0,4.878,7.0,,'11111222,11111222,99999999' 
WAVCIS,ioos:station:WAVCIS:CSI15:1,2011-07-03T14:00:00Z,28.8332,-90.8320,10.0,2.713,342.0,,'11111222,11111222,99999999' 
WAVCIS,ioos:station:WAVCIS:CSI15:1,2011-07-03T15:00:00Z,28.8332,-90.8320,10.0,4.634,347.0,,'11111222,11111222,99999999' 
WAVCIS,ioos:station:WAVCIS:CSI15:1,2011-07-03T16:00:00Z,28.8332,-90.8320,10.0,3.863,35.0,,'11111222,11111222,99999999' 
WAVCIS,ioos:station:WAVCIS:CSI15:1,2011-07-03T17:00:00Z,28.8332,-90.8320,10.0,4.244,49.0,,'11111222,11111222,99999999' 
WAVCIS,ioos:station:WAVCIS:CSI15:1,2011-07-03T18:00:00Z,28.8332,-90.8320,10.0,1.188,77.0,,'11111222,11111222,99999999' 
WAVCIS,ioos:station:WAVCIS:CSI15:1,2011-07-03T19:00:00Z,28.8332,-90.8320,10.0,3.282,123.0,,'11111222,11111222,99999999' 
WAVCIS,ioos:station:WAVCIS:CSI15:1,2011-07-03T20:00:00Z,28.8332,-90.8320,10.0,3.79,120.0,,'11111222,11111222,99999999' 
WAVCIS,ioos:station:WAVCIS:CSI15:1,2011-07-03T21:00:00Z,28.8332,-90.8320,10.0,4.284,111.0,,'11111222,11111222,99999999' 
WAVCIS,ioos:station:WAVCIS:CSI15:1,2011-07-03T22:00:00Z,28.8332,-90.8320,10.0,3.975,119.0,,'11111222,11111222,99999999' 
WAVCIS,ioos:station:WAVCIS:CSI15:1,2011-07-03T23:00:00Z,28.8332,-90.8320,10.0,2.955,125.0,,'11111222,11111222,99999999' 
WAVCIS,ioos:station:WAVCIS:CSI15:1,2011-07-04T00:00:00Z,28.8332,-90.8320,10.0,2.778,115.0,,'11111222,11111222,99999999' 
WAVCIS,ioos:station:WAVCIS:CSI15:1,2011-07-04T01:00:00Z,28.8332,-90.8320,10.0,2.922,131.0,,'11111222,11111222,99999999' 
WAVCIS,ioos:station:WAVCIS:CSI15:1,2011-07-04T02:00:00Z,28.8332,-90.8320,10.0,3.303,131.0,,'11111222,11111222,99999999' 
WAVCIS,ioos:station:WAVCIS:CSI15:1,2011-07-04T03:00:00Z,28.8332,-90.8320,10.0,3.572,120.0,,'11111222,11111222,99999999' 
WAVCIS,ioos:station:WAVCIS:CSI15:1,2011-07-04T04:00:00Z,28.8332,-90.8320,10.0,2.588,119.0,,'11111222,11111222,99999999' 
WAVCIS,ioos:station:WAVCIS:CSI15:1,2011-07-04T05:00:00Z,28.8332,-90.8320,10.0,1.471,95.0,,'11111222,11111222,99999999' 
WAVCIS,ioos:station:WAVCIS:CSI15:1,2011-07-04T06:00:00Z,28.8332,-90.8320,10.0,2.719,113.0,,'11111222,11111222,99999999' 
WAVCIS,ioos:station:WAVCIS:CSI15:1,2011-07-04T07:00:00Z,28.8332,-90.8320,10.0,3.281,125.0,,'11111222,11111222,99999999' 
WAVCIS,ioos:station:WAVCIS:CSI15:1,2011-07-04T08:00:00Z,28.8332,-90.8320,10.0,2.412,128.0,,'11111222,11111222,99999999' 
WAVCIS,ioos:station:WAVCIS:CSI15:1,2011-07-04T09:00:00Z,28.8332,-90.8320,10.0,2.963,116.0,,'11111222,11111222,99999999' 
WAVCIS,ioos:station:WAVCIS:CSI15:1,2011-07-04T10:00:00Z,28.8332,-90.8320,10.0,2.841,111.0,,'11111222,11111222,99999999' 
WAVCIS,ioos:station:WAVCIS:CSI15:1,2011-07-04T11:00:00Z,28.8332,-90.8320,10.0,2.896,120.0,,'11111222,11111222,99999999' 
WAVCIS,ioos:station:WAVCIS:CSI15:1,2011-07-04T12:00:00Z,28.8332,-90.8320,10.0,3.026,133.0,,'11111222,11111222,99999999' 
WAVCIS,ioos:station:WAVCIS:CSI15:1,2011-07-04T13:00:00Z,28.8332,-90.8320,10.0,1.957,100.0,,'11111222,11111222,99999999' 
WAVCIS,ioos:station:WAVCIS:CSI15:1,2011-07-04T14:00:00Z,28.8332,-90.8320,10.0,1.788,82.0,,'11111222,11111222,99999999' 
WAVCIS,ioos:station:WAVCIS:CSI15:1,2011-07-04T15:00:00Z,28.8332,-90.8320,10.0,1.281,46.0,,'11111222,11111222,99999999' 
WAVCIS,ioos:station:WAVCIS:CSI15:1,2011-07-04T16:00:00Z,28.8332,-90.8320,10.0,3.135,81.0,,'11111222,11111222,99999999' 
WAVCIS,ioos:station:WAVCIS:CSI15:1,2011-07-04T17:00:00Z,28.8332,-90.8320,10.0,4.087,96.0,,'11111222,11111222,99999999' 
WAVCIS,ioos:station:WAVCIS:CSI15:1,2011-07-04T18:00:00Z,28.8332,-90.8320,10.0,4.123,73.0,,'11111222,11111222,99999999' 
WAVCIS,ioos:station:WAVCIS:CSI15:1,2011-07-04T19:00:00Z,28.8332,-90.8320,10.0,4.656,77.0,,'11111222,11111222,99999999' 
WAVCIS,ioos:station:WAVCIS:CSI15:1,2011-07-04T20:00:00Z,28.8332,-90.8320,10.0,5.59,83.0,,'11111222,11111222,99999999' 
WAVCIS,ioos:station:WAVCIS:CSI15:1,2011-07-04T21:00:00Z,28.8332,-90.8320,10.0,5.419,98.0,,'11111222,11111222,99999999' 
WAVCIS,ioos:station:WAVCIS:CSI15:1,2011-07-04T22:00:00Z,28.8332,-90.8320,10.0,4.635,108.0,,'11111222,11111222,99999999' 
WAVCIS,ioos:station:WAVCIS:CSI15:1,2011-07-04T23:00:00Z,28.8332,-90.8320,10.0,3.697,104.0,,'11111222,11111222,99999999' 
WAVCIS,ioos:station:WAVCIS:CSI15:1,2011-07-05T00:00:00Z,28.8332,-90.8320,10.0,3.847,104.0,,'11111222,11111222,99999999' 
WAVCIS,ioos:station:WAVCIS:CSI15:1,2011-07-05T01:00:00Z,28.8332,-90.8320,10.0,4.827,120.0,,'11111222,11111222,99999999' 
WAVCIS,ioos:station:WAVCIS:CSI15:1,2011-07-05T02:00:00Z,28.8332,-90.8320,10.0,4.985,107.0,,'11111222,11111222,99999999' 
WAVCIS,ioos:station:WAVCIS:CSI15:1,2011-07-05T03:00:00Z,28.8332,-90.8320,10.0,4.946,101.0,,'11111222,11111222,99999999' 
WAVCIS,ioos:station:WAVCIS:CSI15:1,2011-07-05T04:00:00Z,28.8332,-90.8320,10.0,4.915,102.0,,'11111222,11111222,99999999' 
WAVCIS,ioos:station:WAVCIS:CSI15:1,2011-07-05T05:00:00Z,28.8332,-90.8320,10.0,5.066,106.0,,'11111222,11111222,99999999' 
WAVCIS,ioos:station:WAVCIS:CSI15:1,2011-07-05T06:00:00Z,28.8332,-90.8320,10.0,4.444,122.0,,'11111222,11111222,99999999' 
WAVCIS,ioos:station:WAVCIS:CSI15:1,2011-07-05T07:00:00Z,28.8332,-90.8320,10.0,4.136,119.0,,'11111222,11111222,99999999' 
WAVCIS,ioos:station:WAVCIS:CSI15:1,2011-07-05T08:00:00Z,28.8332,-90.8320,10.0,3.606,132.0,,'11111222,11111222,99999999' 
WAVCIS,ioos:station:WAVCIS:CSI15:1,2011-07-05T09:00:00Z,28.8332,-90.8320,10.0,3.377,149.0,,'11111222,11111222,99999999' 
WAVCIS,ioos:station:WAVCIS:CSI15:1,2011-07-05T10:00:00Z,28.8332,-90.8320,10.0,3.7,159.0,,'11111222,11111222,99999999' 
WAVCIS,ioos:station:WAVCIS:CSI15:1,2011-07-05T11:00:00Z,28.8332,-90.8320,10.0,3.607,153.0,,'11111222,11111222,99999999' 
WAVCIS,ioos:station:WAVCIS:CSI15:1,2011-07-05T12:00:00Z,28.8332,-90.8320,10.0,2.543,152.0,,'11111222,11111222,99999999' 
WAVCIS,ioos:station:WAVCIS:CSI15:1,2011-07-05T13:00:00Z,28.8332,-90.8320,10.0,2.38,137.0,,'11111222,11111222,99999999' 
WAVCIS,ioos:station:WAVCIS:CSI15:1,2011-07-05T14:00:00Z,28.8332,-90.8320,10.0,1.232,94.0,,'11111222,11111222,99999999' 
WAVCIS,ioos:station:WAVCIS:CSI15:1,2011-07-05T15:00:00Z,28.8332,-90.8320,10.0,1.987,101.0,,'11111222,11111222,99999999' 
WAVCIS,ioos:station:WAVCIS:CSI15:1,2011-07-05T16:00:00Z,28.8332,-90.8320,10.0,2.259,84.0,,'11111222,11111222,99999999' 
WAVCIS,ioos:station:WAVCIS:CSI15:1,2011-07-05T17:00:00Z,28.8332,-90.8320,10.0,2.48,94.0,,'11111222,11111222,99999999' 
WAVCIS,ioos:station:WAVCIS:CSI15:1,2011-07-05T18:00:00Z,28.8332,-90.8320,10.0,2.773,116.0,,'11111222,11111222,99999999' 
WAVCIS,ioos:station:WAVCIS:CSI15:1,2011-07-05T19:00:00Z,28.8332,-90.8320,10.0,2.897,106.0,,'11111222,11111222,99999999' 
WAVCIS,ioos:station:WAVCIS:CSI15:1,2011-07-05T20:00:00Z,28.8332,-90.8320,10.0,3.852,119.0,,'11111222,11111222,99999999' 
WAVCIS,ioos:station:WAVCIS:CSI15:1,2011-07-05T21:00:00Z,28.8332,-90.8320,10.0,3.212,140.0,,'11111222,11111222,99999999' 
WAVCIS,ioos:station:WAVCIS:CSI15:1,2011-07-05T22:00:00Z,28.8332,-90.8320,10.0,1.567,141.0,,'11111222,11111222,99999999' 
WAVCIS,ioos:station:WAVCIS:CSI15:1,2011-07-05T23:00:00Z,28.8332,-90.8320,10.0,4.729,138.0,,'11111222,11111222,99999999' 
WAVCIS,ioos:station:WAVCIS:CSI15:1,2011-07-06T00:00:00Z,28.8332,-90.8320,10.0,3.503,157.0,,'11111222,11111222,99999999' 
WAVCIS,ioos:station:WAVCIS:CSI15:1,2011-07-06T01:00:00Z,28.8332,-90.8320,10.0,2.837,135.0,,'11111222,11111222,99999999' 
WAVCIS,ioos:station:WAVCIS:CSI15:1,2011-07-06T02:00:00Z,28.8332,-90.8320,10.0,3.149,144.0,,'11111222,11111222,99999999' 
WAVCIS,ioos:station:WAVCIS:CSI15:1,2011-07-06T03:00:00Z,28.8332,-90.8320,10.0,5.281,129.0,,'11111222,11111222,99999999' 
WAVCIS,ioos:station:WAVCIS:CSI15:1,2011-07-06T04:00:00Z,28.8332,-90.8320,10.0,5.564,147.0,,'11111222,11111222,99999999' 
WAVCIS,ioos:station:WAVCIS:CSI15:1,2011-07-06T05:00:00Z,28.8332,-90.8320,10.0,4.416,149.0,,'11111222,11111222,99999999' 
WAVCIS,ioos:station:WAVCIS:CSI15:1,2011-07-06T06:00:00Z,28.8332,-90.8320,10.0,2.811,154.0,,'11111222,11111222,99999999' 
WAVCIS,ioos:station:WAVCIS:CSI15:1,2011-07-06T07:00:00Z,28.8332,-90.8320,10.0,2.145,149.0,,'11111222,11111222,99999999' 
WAVCIS,ioos:station:WAVCIS:CSI15:1,2011-07-06T08:00:00Z,28.8332,-90.8320,10.0,2.263,154.0,,'11111222,11111222,99999999' 
WAVCIS,ioos:station:WAVCIS:CSI15:1,2011-07-06T09:00:00Z,28.8332,-90.8320,10.0,2.697,144.0,,'11111222,11111222,99999999' 
WAVCIS,ioos:station:WAVCIS:CSI15:1,2011-07-06T10:00:00Z,28.8332,-90.8320,10.0,2.693,148.0,,'11111222,11111222,99999999' 
WAVCIS,ioos:station:WAVCIS:CSI15:1,2011-07-06T11:00:00Z,28.8332,-90.8320,10.0,2.842,129.0,,'11111222,11111222,99999999' 
WAVCIS,ioos:station:WAVCIS:CSI15:1,2011-07-06T12:00:00Z,28.8332,-90.8320,10.0,2.535,103.0,,'11111222,11111222,99999999' 
WAVCIS,ioos:station:WAVCIS:CSI15:1,2011-07-06T13:00:00Z,28.8332,-90.8320,10.0,1.356,110.0,,'11111222,11111222,99999999' 
WAVCIS,ioos:station:WAVCIS:CSI15:1,2011-07-06T14:00:00Z,28.8332,-90.8320,10.0,1.945,301.0,,'11111222,11111222,99999999' 
WAVCIS,ioos:station:WAVCIS:CSI15:1,2011-07-06T15:00:00Z,28.8332,-90.8320,10.0,0.868,351.0,,'11111222,11111222,99999999' 
WAVCIS,ioos:station:WAVCIS:CSI15:1,2011-07-06T16:00:00Z,28.8332,-90.8320,10.0,2.181,110.0,,'11111222,11111222,99999999' 
WAVCIS,ioos:station:WAVCIS:CSI15:1,2011-07-06T17:00:00Z,28.8332,-90.8320,10.0,3.261,106.0,,'11111222,11111222,99999999' 
WAVCIS,ioos:station:WAVCIS:CSI15:1,2011-07-06T18:00:00Z,28.8332,-90.8320,10.0,3.025,90.0,,'11111222,11111222,99999999' 
WAVCIS,ioos:station:WAVCIS:CSI15:1,2011-07-06T19:00:00Z,28.8332,-90.8320,10.0,2.572,109.0,,'11111222,11111222,99999999' 
WAVCIS,ioos:station:WAVCIS:CSI15:1,2011-07-06T20:00:00Z,28.8332,-90.8320,10.0,3.032,108.0,,'11111222,11111222,99999999' 
WAVCIS,ioos:station:WAVCIS:CSI15:1,2011-07-06T21:00:00Z,28.8332,-90.8320,10.0,2.672,126.0,,'11111222,11111222,99999999' 
WAVCIS,ioos:station:WAVCIS:CSI15:1,2011-07-06T22:00:00Z,28.8332,-90.8320,10.0,0.336,184.0,,'11111222,11111222,99999999' 
WAVCIS,ioos:station:WAVCIS:CSI15:1,2011-07-06T23:00:00Z,28.8332,-90.8320,10.0,0.467,72.0,,'11111222,11111222,99999999' 
WAVCIS,ioos:station:WAVCIS:CSI15:1,2011-07-07T00:00:00Z,28.8332,-90.8320,10.0,1.422,130.0,,'11111222,11111222,99999999' 
WAVCIS,ioos:station:WAVCIS:CSI15:1,2011-07-07T01:00:00Z,28.8332,-90.8320,10.0,0.803,89.0,,'11111222,11111222,99999999' 
WAVCIS,ioos:station:WAVCIS:CSI15:1,2011-07-07T02:00:00Z,28.8332,-90.8320,10.0,0.639,83.0,,'11111222,11111222,99999999' 
WAVCIS,ioos:station:WAVCIS:CSI15:1,2011-07-07T03:00:00Z,28.8332,-90.8320,10.0,3.037,122.0,,'11111222,11111222,99999999' 
WAVCIS,ioos:station:WAVCIS:CSI15:1,2011-07-07T04:00:00Z,28.8332,-90.8320,10.0,3.048,131.0,,'11111222,11111222,99999999' 
WAVCIS,ioos:station:WAVCIS:CSI15:1,2011-07-07T05:00:00Z,28.8332,-90.8320,10.0,3.365,119.0,,'11111222,11111222,99999999' 
WAVCIS,ioos:station:WAVCIS:CSI15:1,2011-07-07T06:00:00Z,28.8332,-90.8320,10.0,2.681,119.0,,'11111222,11111222,99999999' 
WAVCIS,ioos:station:WAVCIS:CSI15:1,2011-07-07T07:00:00Z,28.8332,-90.8320,10.0,2.905,153.0,,'11111222,11111222,99999999' 
WAVCIS,ioos:station:WAVCIS:CSI15:1,2011-07-07T08:00:00Z,28.8332,-90.8320,10.0,2.061,164.0,,'11111222,11111222,99999999' 
WAVCIS,ioos:station:WAVCIS:CSI15:1,2011-07-07T09:00:00Z,28.8332,-90.8320,10.0,2.485,189.0,,'11111222,11111222,99999999' 
WAVCIS,ioos:station:WAVCIS:CSI15:1,2011-07-07T10:00:00Z,28.8332,-90.8320,10.0,2.339,189.0,,'11111222,11111222,99999999' 
WAVCIS,ioos:station:WAVCIS:CSI15:1,2011-07-07T11:00:00Z,28.8332,-90.8320,10.0,2.488,208.0,,'11111222,11111222,99999999' 
WAVCIS,ioos:station:WAVCIS:CSI15:1,2011-07-07T12:00:00Z,28.8332,-90.8320,10.0,1.841,236.0,,'11111222,11111222,99999999' 
WAVCIS,ioos:station:WAVCIS:CSI15:1,2011-07-07T13:00:00Z,28.8332,-90.8320,10.0,1.212,217.0,,'11111222,11111222,99999999' 
WAVCIS,ioos:station:WAVCIS:CSI15:1,2011-07-07T14:00:00Z,28.8332,-90.8320,10.0,1.053,240.0,,'11111222,11111222,99999999' 
WAVCIS,ioos:station:WAVCIS:CSI15:1,2011-07-07T15:00:00Z,28.8332,-90.8320,10.0,1.673,263.0,,'11111222,11111222,99999999' 
WAVCIS,ioos:station:WAVCIS:CSI15:1,2011-07-07T16:00:00Z,28.8332,-90.8320,10.0,1.455,295.0,,'11111222,11111222,99999999' 
WAVCIS,ioos:station:WAVCIS:CSI15:1,2011-07-07T17:00:00Z,28.8332,-90.8320,10.0,0.862,308.0,,'11111222,11111222,99999999' 
WAVCIS,ioos:station:WAVCIS:CSI15:1,2011-07-07T18:00:00Z,28.8332,-90.8320,10.0,0.809,265.0,,'11111222,11111222,99999999' 
WAVCIS,ioos:station:WAVCIS:CSI15:1,2011-07-07T19:00:00Z,28.8332,-90.8320,10.0,0.408,199.0,,'11111222,11111222,99999999' 
WAVCIS,ioos:station:WAVCIS:CSI15:1,2011-07-07T20:00:00Z,28.8332,-90.8320,10.0,1.515,128.0,,'11111222,11111222,99999999' 
WAVCIS,ioos:station:WAVCIS:CSI15:1,2011-07-07T21:00:00Z,28.8332,-90.8320,10.0,0.281,145.0,,'11111222,11111222,99999999' 
WAVCIS,ioos:station:WAVCIS:CSI15:1,2011-07-07T22:00:00Z,28.8332,-90.8320,10.0,0.922,139.0,,'11111222,11111222,99999999' 
WAVCIS,ioos:station:WAVCIS:CSI15:1,2011-07-07T23:00:00Z,28.8332,-90.8320,10.0,1.101,151.0,,'11111222,11111222,99999999' 
WAVCIS,ioos:station:WAVCIS:CSI15:1,2011-07-08T00:00:00Z,28.8332,-90.8320,10.0,0.693,167.0,,'11111222,11111222,99999999' 
WAVCIS,ioos:station:WAVCIS:CSI15:1,2011-07-08T01:00:00Z,28.8332,-90.8320,10.0,0.984,189.0,,'11111222,11111222,99999999' 
WAVCIS,ioos:station:WAVCIS:CSI15:1,2011-07-08T02:00:00Z,28.8332,-90.8320,10.0,1.815,158.0,,'11111222,11111222,99999999' 
WAVCIS,ioos:station:WAVCIS:CSI15:1,2011-07-08T03:00:00Z,28.8332,-90.8320,10.0,2.501,147.0,,'11111222,11111222,99999999' 
WAVCIS,ioos:station:WAVCIS:CSI15:1,2011-07-08T04:00:00Z,28.8332,-90.8320,10.0,2.733,159.0,,'11111222,11111222,99999999' 
WAVCIS,ioos:station:WAVCIS:CSI15:1,2011-07-08T05:00:00Z,28.8332,-90.8320,10.0,3.136,156.0,,'11111222,11111222,99999999' 
WAVCIS,ioos:station:WAVCIS:CSI15:1,2011-07-08T06:00:00Z,28.8332,-90.8320,10.0,3.589,183.0,,'11111222,11111222,99999999' 
WAVCIS,ioos:station:WAVCIS:CSI15:1,2011-07-08T07:00:00Z,28.8332,-90.8320,10.0,4.235,202.0,,'11111222,11111222,99999999' 
WAVCIS,ioos:station:WAVCIS:CSI15:1,2011-07-08T08:00:00Z,28.8332,-90.8320,10.0,3.848,221.0,,'11111222,11111222,99999999' 
WAVCIS,ioos:station:WAVCIS:CSI15:1,2011-07-08T09:00:00Z,28.8332,-90.8320,10.0,3.5,219.0,,'11111222,11111222,99999999' 
WAVCIS,ioos:station:WAVCIS:CSI15:1,2011-07-08T10:00:00Z,28.8332,-90.8320,10.0,3.514,211.0,,'11111222,11111222,99999999' 
WAVCIS,ioos:station:WAVCIS:CSI15:1,2011-07-08T11:00:00Z,28.8332,-90.8320,10.0,3.796,225.0,,'11111222,11111222,99999999' 
WAVCIS,ioos:station:WAVCIS:CSI15:1,2011-07-08T12:00:00Z,28.8332,-90.8320,10.0,4.04,230.0,,'11111222,11111222,99999999' 
WAVCIS,ioos:station:WAVCIS:CSI15:1,2011-07-08T13:00:00Z,28.8332,-90.8320,10.0,3.807,228.0,,'11111222,11111222,99999999' 
WAVCIS,ioos:station:WAVCIS:CSI15:1,2011-07-08T14:00:00Z,28.8332,-90.8320,10.0,2.999,234.0,,'11111222,11111222,99999999' 
WAVCIS,ioos:station:WAVCIS:CSI15:1,2011-07-08T15:00:00Z,28.8332,-90.8320,10.0,1.919,218.0,,'11111222,11111222,99999999' 
WAVCIS,ioos:station:WAVCIS:CSI15:1,2011-07-08T16:00:00Z,28.8332,-90.8320,10.0,1.684,208.0,,'11111222,11111222,99999999' 
WAVCIS,ioos:station:WAVCIS:CSI15:1,2011-07-08T17:00:00Z,28.8332,-90.8320,10.0,3.288,201.0,,'11111222,11111222,99999999' 
WAVCIS,ioos:station:WAVCIS:CSI15:1,2011-07-08T18:00:00Z,28.8332,-90.8320,10.0,2.68,216.0,,'11111222,11111222,99999999' 
WAVCIS,ioos:station:WAVCIS:CSI15:1,2011-07-08T19:00:00Z,28.8332,-90.8320,10.0,3.362,208.0,,'11111222,11111222,99999999' 
WAVCIS,ioos:station:WAVCIS:CSI15:1,2011-07-08T20:00:00Z,28.8332,-90.8320,10.0,3.299,211.0,,'11111222,11111222,99999999' 
WAVCIS,ioos:station:WAVCIS:CSI15:1,2011-07-08T21:00:00Z,28.8332,-90.8320,10.0,3.332,236.0,,'11111222,11111222,99999999' 
WAVCIS,ioos:station:WAVCIS:CSI15:1,2011-07-08T22:00:00Z,28.8332,-90.8320,10.0,3.185,211.0,,'11111222,11111222,99999999' 
WAVCIS,ioos:station:WAVCIS:CSI15:1,2011-07-08T23:00:00Z,28.8332,-90.8320,10.0,3.954,228.0,,'11111222,11111222,99999999' 
WAVCIS,ioos:station:WAVCIS:CSI15:1,2011-07-09T00:00:00Z,28.8332,-90.8320,10.0,4.339,232.0,,'11111222,11111222,99999999' 
WAVCIS,ioos:station:WAVCIS:CSI15:1,2011-07-09T01:00:00Z,28.8332,-90.8320,10.0,4.408,211.0,,'11111222,11111222,99999999' 
WAVCIS,ioos:station:WAVCIS:CSI15:1,2011-07-09T02:00:00Z,28.8332,-90.8320,10.0,4.53,191.0,,'11111222,11111222,99999999' 
WAVCIS,ioos:station:WAVCIS:CSI15:1,2011-07-09T03:00:00Z,28.8332,-90.8320,10.0,4.427,189.0,,'11111222,11111222,99999999' 
WAVCIS,ioos:station:WAVCIS:CSI15:1,2011-07-09T04:00:00Z,28.8332,-90.8320,10.0,3.374,203.0,,'11111222,11111222,99999999' 